Date String (YYYY-MM-DD hh:mm:ss) UTC,Instrument flags,Ambient pressure (hPa),Sample flow (lpm),Bypass flow (lpm),Sample temperature (°C),Ambient temperature (°C),ASC tube jacket temperature (°C),LED temperature (°C),Box temperature (°C),Sample RH (%),Span deviation,Mass concentration (μg/m³),Mass concentration (μg/m³),Mass concentration (μg/m³)
DateTimeUTC,F1_M11,P_M11,Q1_M11,Q2_M11,T1_M11,T2_M11,T3_M11,T4_M11,T5_M11,U1_M11,ZSPAN_M11,X0_M11,X2_M11,X1_M11
2023-03-05 10:00:00,,0814.7,4.98,0.00,21.8,21.3,00.0,30.5,23.4,14.0,0000.3,0015.53,0011.17,0010.51
2023-03-05 10:01:00,,0814.8,5.00,0.00,21.7,20.8,00.0,30.5,23.3,14.1,0000.3,0015.35,0011.17,0010.52
2023-03-05 10:02:00,,0814.8,4.99,0.00,21.7,20.4,00.0,30.5,23.2,14.1,0000.3,0015.43,0011.22,0010.55
2023-03-05 10:03:00,,0814.8,5.02,0.00,21.6,20.1,00.0,30.5,23.2,14.2,0000.3,0016.01,0011.31,0010.62
2023-03-05 10:04:00,,0814.8,5.00,0.00,21.6,19.8,00.0,30.5,23.1,14.2,0000.3,0016.12,0011.37,0010.68
2023-03-05 10:05:00,,0814.9,5.00,0.00,21.5,19.6,00.0,30.5,23.0,14.3,0000.5,0016.10,0011.41,0010.71
2023-03-05 10:06:00,,0814.9,5.00,0.00,21.5,19.6,00.0,30.4,23.0,14.3,0000.4,0016.15,0011.47,0010.75
2023-03-05 10:07:00,,0814.9,5.02,0.00,21.5,20.7,00.0,30.4,23.3,14.4,0000.3,0016.09,0011.46,0010.77
2023-03-05 10:08:00,,0814.9,4.99,0.00,21.7,21.9,00.0,30.4,23.5,14.3,0000.1,0016.12,0011.49,0010.78
2023-03-05 10:09:00,,0814.9,4.99,0.00,21.8,22.4,00.0,30.5,23.7,14.2,-000.1,0016.24,0011.54,0010.79
2023-03-05 10:10:00,,0814.9,5.01,0.00,21.8,21.8,00.0,30.5,23.6,14.2,-000.2,0016.37,0011.53,0010.81
2023-03-05 10:11:00,,0814.9,5.02,0.00,21.8,21.3,00.0,30.5,23.5,14.1,-000.3,0016.44,0011.55,0010.85
2023-03-05 10:12:00,,0814.9,5.00,0.00,21.8,20.9,00.0,30.5,23.5,14.0,-000.3,0016.47,0011.58,0010.89
2023-03-05 10:13:00,,0814.9,5.00,0.00,21.8,20.7,00.0,30.5,23.4,14.0,-000.4,0016.55,0011.62,0010.91
2023-03-05 10:14:00,,0814.9,4.99,0.00,21.8,20.4,00.0,30.5,23.4,14.1,-000.5,0016.17,0011.62,0010.89
2023-03-05 10:15:00,,0814.9,5.00,0.00,21.8,20.2,00.0,30.5,23.4,14.1,-000.6,0015.87,0011.62,0010.87
2023-03-05 10:16:00,,0814.9,5.00,0.00,21.7,20.1,00.0,30.5,23.3,14.2,-000.7,0016.04,0011.67,0010.88
2023-03-05 10:17:00,,0814.9,5.01,0.00,21.6,19.9,00.0,30.5,23.2,14.3,-000.9,0015.94,0011.62,0010.87
2023-03-05 10:18:00,,0814.9,5.01,0.00,21.6,19.7,00.0,30.5,23.1,14.3,-000.9,0016.35,0011.68,0010.89
2023-03-05 10:19:00,,0814.9,5.00,0.00,21.6,20.5,00.0,30.5,23.3,14.3,-000.7,0016.58,0011.66,0010.92
2023-03-05 10:20:00,,0814.9,5.03,0.00,21.7,21.8,00.0,30.5,23.6,14.2,-000.6,0016.59,0011.70,0010.96
2023-03-05 10:21:00,,0814.9,4.99,0.00,21.9,22.6,00.0,30.5,23.8,14.1,-000.5,0016.72,0011.74,0010.96
2023-03-05 10:22:00,,0814.9,5.01,0.00,21.9,22.3,00.0,30.5,23.8,14.1,-000.5,0017.27,0011.80,0010.96
2023-03-05 10:23:00,,0814.9,4.98,0.00,21.9,21.8,00.0,30.6,23.7,14.1,-000.3,0017.32,0011.83,0010.97
2023-03-05 10:24:00,,0814.9,5.01,0.00,21.9,21.3,00.0,30.6,23.6,14.1,-000.5,0017.27,0011.80,0010.95
2023-03-05 10:25:00,,0814.9,5.00,0.00,21.9,20.9,00.0,30.6,23.6,14.2,-000.5,0017.17,0011.78,0010.94
2023-03-05 10:26:00,,0814.9,5.00,0.00,21.9,20.6,00.0,30.6,23.5,14.2,-000.7,0017.12,0011.77,0010.95
2023-03-05 10:27:00,,0814.9,4.99,0.00,21.8,20.3,00.0,30.6,23.4,14.2,-000.8,0016.86,0011.68,0010.92
2023-03-05 10:28:00,,0814.9,5.01,0.00,21.8,20.1,00.0,30.6,23.4,14.2,-000.6,0016.85,0011.68,0010.88
2023-03-05 10:29:00,,0814.9,5.00,0.00,21.8,19.9,00.0,30.6,23.3,14.2,-000.6,0016.65,0011.63,0010.84
2023-03-05 10:30:00,,0814.9,5.01,0.00,21.7,19.8,00.0,30.6,23.2,14.2,-000.6,0016.12,0011.58,0010.80
2023-03-05 10:31:00,,0815.3,5.01,0.00,21.7,20.2,00.0,30.5,23.3,14.2,-000.7,0016.08,0011.53,0010.75
2023-03-05 10:32:00,,0815.0,4.99,0.00,21.8,21.5,00.0,30.5,23.6,14.1,-000.9,0015.87,0011.41,0010.70
2023-03-05 10:33:00,,0815.0,4.96,0.00,21.9,22.6,00.0,30.6,23.8,14.0,-000.6,0015.18,0011.38,0010.67
2023-03-05 10:34:00,,0815.2,5.00,0.00,22.0,22.6,00.0,30.6,23.9,13.8,-000.8,0015.21,0011.36,0010.65
2023-03-05 10:35:00,,0815.3,5.01,0.00,22.0,21.9,00.0,30.6,23.8,13.7,-000.6,0015.19,0011.36,0010.64
2023-03-05 10:36:00,,0815.1,4.99,0.00,22.0,21.4,00.0,30.7,23.7,13.8,-000.5,0015.15,0011.32,0010.63
2023-03-05 10:37:00,,0815.1,5.00,0.00,22.0,20.9,00.0,30.7,23.6,13.9,-000.1,0015.26,0011.34,0010.62
2023-03-05 10:38:00,,0815.1,5.00,0.00,21.9,20.5,00.0,30.7,23.5,13.9,0000.0,0015.21,0011.32,0010.60
2023-03-05 10:39:00,,0815.2,5.01,0.00,21.9,20.2,00.0,30.6,23.4,13.9,-000.0,0015.21,0011.33,0010.61
2023-03-05 10:40:00,,0815.2,5.00,0.00,21.8,19.9,00.0,30.6,23.2,14.0,0000.0,0015.19,0011.29,0010.60
2023-03-05 10:41:00,,0815.2,5.00,0.00,21.7,19.7,00.0,30.6,23.1,14.1,0000.3,0015.31,0011.31,0010.60
2023-03-05 10:42:00,,0815.1,4.99,0.00,21.6,19.5,00.0,30.6,23.1,14.1,0000.5,0015.24,0011.31,0010.59
2023-03-05 10:43:00,,0815.0,5.03,0.00,21.7,20.3,00.0,30.5,23.3,14.2,0000.4,0015.29,0011.36,0010.62
2023-03-05 10:44:00,,0815.1,4.99,0.00,21.8,21.6,00.0,30.5,23.6,14.1,0000.0,0015.47,0011.33,0010.61
2023-03-05 10:45:00,,0815.1,4.99,0.00,21.9,22.4,00.0,30.6,23.8,14.0,0000.0,0015.42,0011.28,0010.59
2023-03-05 10:46:00,,0815.1,4.98,0.00,21.9,22.0,00.0,30.6,23.8,14.0,0000.1,0015.74,0011.29,0010.59
2023-03-05 10:47:00,,0814.9,5.01,0.00,21.9,21.3,00.0,30.6,23.6,14.0,0000.0,0015.80,0011.31,0010.59
2023-03-05 10:48:00,,0815.2,5.01,0.00,21.9,20.8,00.0,30.6,23.5,14.1,-000.2,0015.69,0011.28,0010.57
2023-03-05 10:49:00,,0815.1,4.99,0.00,21.8,20.4,00.0,30.6,23.3,14.1,-000.3,0015.96,0011.27,0010.58
2023-03-05 10:50:00,,0814.9,5.00,0.00,21.7,20.1,00.0,30.6,23.2,14.2,-000.2,0015.94,0011.23,0010.57
2023-03-05 10:51:00,,0815.1,5.00,0.00,21.7,19.8,00.0,30.6,23.1,14.2,-000.4,0016.00,0011.24,0010.56
2023-03-05 10:52:00,,0815.1,4.99,0.00,21.6,19.6,00.0,30.5,23.0,14.3,-000.6,0015.85,0011.22,0010.55
2023-03-05 10:53:00,,0814.9,5.01,0.00,21.6,20.2,00.0,30.5,23.1,14.4,-000.7,0015.87,0011.22,0010.55
2023-03-05 10:54:00,,0815.0,5.00,0.00,21.7,21.4,00.0,30.5,23.5,14.3,-000.4,0015.87,0011.21,0010.50
2023-03-05 10:55:00,,0815.1,5.00,0.00,21.8,22.3,00.0,30.5,23.7,14.2,-000.3,0015.65,0011.21,0010.49
2023-03-05 10:56:00,,0815.1,5.00,0.00,21.9,22.0,00.0,30.6,23.7,14.1,-000.3,0015.57,0011.19,0010.47
2023-03-05 10:57:00,,0815.2,5.01,0.00,21.8,21.3,00.0,30.6,23.5,14.1,-000.3,0015.31,0011.18,0010.44
2023-03-05 10:58:00,,0815.2,5.00,0.00,21.8,20.8,00.0,30.6,23.3,14.1,-000.4,0015.34,0011.17,0010.41
2023-03-05 10:59:00,,0815.2,4.98,0.00,21.7,20.3,00.0,30.6,23.2,14.1,-000.4,0015.30,0011.14,0010.37
